| time (UTC) | temp F | wind direction | speed MPH | gust MPH | rain 1hr in | rain 24hr in | rain mn in | humidity % | barometer mb |
| 20260503002003 | 41 | 211 | 2.0 | 4.0 | 0.00 | 0.00 | 0.00 | 72 | 1014.7 |
| 20260503001524 | 41 | 217 | 2.0 | 5.0 | 0.00 | 0.00 | 0.00 | 72 | 1014.7 |
| 20260503001003 | 41 | 216 | 2.0 | 5.0 | 0.00 | 0.00 | 0.00 | 72 | 1014.8 |
| 20260503000503 | 41 | 232 | 2.0 | 7.0 | 0.00 | 0.00 | 0.00 | 72 | 1014.7 |
| 20260503000003 | 41 | 234 | 3.0 | 8.0 | 0.00 | 0.00 | 0.00 | 71 | 1014.7 |
| 20260502235503 | 41 | 229 | 3.0 | 8.0 | 0.00 | 0.00 | 0.00 | 71 | 1014.7 |
| 20260502235024 | 41 | 231 | 3.0 | 8.0 | 0.00 | 0.00 | 0.00 | 70 | 1014.6 |
| 20260502234503 | 41 | 230 | 3.0 | 9.0 | 0.00 | 0.00 | 0.00 | 70 | 1014.6 |
| 20260502234003 | 41 | 234 | 4.0 | 9.0 | 0.00 | 0.00 | 0.00 | 71 | 1014.6 |
| 20260502233503 | 41 | 228 | 3.0 | 8.0 | 0.00 | 0.00 | 0.00 | 71 | 1014.6 |
| 20260502233003 | 41 | 210 | 3.0 | 7.0 | 0.00 | 0.00 | 0.00 | 70 | 1014.6 |
| 20260502232503 | 41 | 208 | 2.0 | 8.0 | 0.00 | 0.00 | 0.00 | 70 | 1014.6 |
| 20260502232024 | 41 | 220 | 2.0 | 8.0 | 0.00 | 0.00 | 0.00 | 70 | 1014.6 |
| 20260502231503 | 41 | 234 | 3.0 | 8.0 | 0.00 | 0.00 | 0.00 | 70 | 1014.6 |
| 20260502231003 | 41 | 217 | 3.0 | 8.0 | 0.00 | 0.00 | 0.00 | 70 | 1014.6 |
| 20260502230503 | 41 | 210 | 3.0 | 9.0 | 0.00 | 0.00 | 0.00 | 70 | 1014.6 |
| 20260502230003 | 42 | 222 | 4.0 | 10.0 | 0.00 | 0.00 | 0.00 | 70 | 1014.5 |
| 20260502225503 | 42 | 213 | 3.0 | 10.0 | 0.00 | 0.00 | 0.00 | 70 | 1014.5 |
| 20260502225003 | 42 | 208 | 3.0 | 9.0 | 0.00 | 0.00 | 0.00 | 69 | 1014.5 |
| 20260502224503 | 42 | 218 | 3.0 | 9.0 | 0.00 | 0.00 | 0.00 | 69 | 1014.5 |
| 20260502224003 | 42 | 219 | 4.0 | 10.0 | 0.00 | 0.00 | 0.00 | 69 | 1014.5 |
| 20260502223503 | 42 | 217 | 4.0 | 10.0 | 0.00 | 0.00 | 0.00 | 69 | 1014.6 |
| 20260502223003 | 42 | 231 | 4.0 | 9.0 | 0.00 | 0.00 | 0.00 | 68 | 1014.6 |
| 20260502222503 | 42 | 231 | 3.0 | 9.0 | 0.00 | 0.00 | 0.00 | 68 | 1014.5 |
| 20260502222003 | 42 | 221 | 4.0 | 11.0 | 0.00 | 0.00 | 0.00 | 69 | 1014.6 |
| 20260502221503 | 42 | 237 | 5.0 | 13.0 | 0.00 | 0.00 | 0.00 | 69 | 1014.6 |
| 20260502221024 | 42 | 236 | 6.0 | 13.0 | 0.00 | 0.00 | 0.00 | 68 | 1014.6 |
| 20260502220503 | 42 | 224 | 5.0 | 11.0 | 0.00 | 0.00 | 0.00 | 68 | 1014.6 |
| 20260502220003 | 42 | 226 | 4.0 | 12.0 | 0.00 | 0.00 | 0.00 | 67 | 1014.6 |
| 20260502215503 | 42 | 237 | 4.0 | 12.0 | 0.00 | 0.00 | 0.00 | 66 | 1014.6 |
| 20260502215024 | 42 | 243 | 4.0 | 14.0 | 0.00 | 0.00 | 0.00 | 67 | 1014.5 |
| 20260502214524 | 42 | 246 | 5.0 | 14.0 | 0.00 | 0.00 | 0.00 | 65 | 1014.4 |
| 20260502214003 | 42 | 244 | 4.0 | 14.0 | 0.00 | 0.00 | 0.00 | 65 | 1014.5 |
| 20260502213503 | 43 | 239 | 4.0 | 10.0 | 0.00 | 0.00 | 0.00 | 67 | 1014.5 |
| 20260502213003 | 43 | 240 | 4.0 | 12.0 | 0.00 | 0.00 | 0.00 | 66 | 1014.5 |
| 20260502212503 | 42 | 245 | 4.0 | 12.0 | 0.00 | 0.00 | 0.00 | 66 | 1014.5 |
| 20260502212024 | 42 | 258 | 4.0 | 12.0 | 0.00 | 0.00 | 0.00 | 66 | 1014.5 |
| 20260502211503 | 42 | 254 | 5.0 | 11.0 | 0.00 | 0.00 | 0.00 | 67 | 1014.5 |
| 20260502211003 | 42 | 243 | 5.0 | 11.0 | 0.00 | 0.00 | 0.00 | 66 | 1014.4 |
| 20260502210503 | 42 | 249 | 4.0 | 11.0 | 0.00 | 0.00 | 0.00 | 67 | 1014.4 |
| 20260502210024 | 42 | 244 | 4.0 | 10.0 | 0.00 | 0.00 | 0.00 | 67 | 1014.4 |
| 20260502205524 | 42 | 231 | 4.0 | 10.0 | 0.00 | 0.00 | 0.00 | 68 | 1014.5 |
| 20260502205003 | 42 | 236 | 4.0 | 12.0 | 0.00 | 0.00 | 0.00 | 68 | 1014.5 |
| 20260502204524 | 42 | 239 | 4.0 | 12.0 | 0.00 | 0.00 | 0.00 | 67 | 1014.5 |
| 20260502204024 | 42 | 248 | 4.0 | 12.0 | 0.00 | 0.00 | 0.00 | 67 | 1014.5 |
| 20260502203524 | 42 | 249 | 5.0 | 11.0 | 0.00 | 0.00 | 0.00 | 67 | 1014.4 |
| 20260502203003 | 42 | 244 | 5.0 | 15.0 | 0.00 | 0.00 | 0.00 | 66 | 1014.5 |
| 20260502202503 | 42 | 243 | 6.0 | 15.0 | 0.00 | 0.00 | 0.00 | 66 | 1014.5 |
| 20260502202003 | 42 | 250 | 7.0 | 16.0 | 0.00 | 0.00 | 0.00 | 65 | 1014.4 |
| 20260502201503 | 42 | 253 | 7.0 | 17.0 | 0.00 | 0.00 | 0.00 | 64 | 1014.6 |
| 20260502201024 | 42 | 254 | 7.0 | 17.0 | 0.00 | 0.00 | 0.00 | 64 | 1014.7 |
| 20260502200524 | 42 | 259 | 7.0 | 15.0 | 0.00 | 0.00 | 0.00 | 64 | 1014.7 |
| 20260502200003 | 42 | 256 | 6.0 | 13.0 | 0.00 | 0.00 | 0.00 | 62 | 1014.8 |
| 20260502195503 | 43 | 245 | 5.0 | 13.0 | 0.00 | 0.00 | 0.00 | 61 | 1014.7 |
| 20260502195003 | 43 | 238 | 4.0 | 11.0 | 0.00 | 0.00 | 0.00 | 62 | 1014.7 |
| 20260502194503 | 42 | 237 | 5.0 | 12.0 | 0.00 | 0.00 | 0.00 | 62 | 1014.8 |
| 20260502194003 | 42 | 234 | 6.0 | 13.0 | 0.00 | 0.00 | 0.00 | 61 | 1014.8 |
| 20260502193503 | 42 | 235 | 5.0 | 13.0 | 0.00 | 0.00 | 0.00 | 61 | 1014.8 |
| 20260502193003 | 42 | 245 | 5.0 | 14.0 | 0.00 | 0.00 | 0.00 | 60 | 1014.8 |
| 20260502192503 | 43 | 248 | 6.0 | 15.0 | 0.00 | 0.00 | 0.00 | 61 | 1014.8 |
| 20260502192003 | 42 | 250 | 7.0 | 15.0 | 0.00 | 0.00 | 0.00 | 63 | 1014.9 |
| 20260502191503 | 42 | 245 | 6.0 | 14.0 | 0.00 | 0.00 | 0.00 | 61 | 1014.9 |
| 20260502191003 | 43 | 238 | 6.0 | 11.0 | 0.00 | 0.00 | 0.00 | 63 | 1015.0 |
| 20260502190503 | 43 | 246 | 6.0 | 13.0 | 0.00 | 0.00 | 0.00 | 62 | 1014.9 |
| 20260502190024 | 43 | 250 | 6.0 | 14.0 | 0.00 | 0.01 | 0.00 | 61 | 1014.9 |
| 20260502185524 | 44 | 247 | 5.0 | 14.0 | 0.00 | 0.01 | 0.00 | 61 | 1014.8 |
| 20260502185003 | 43 | 249 | 6.0 | 14.0 | 0.00 | 0.01 | 0.00 | 61 | 1014.9 |
| 20260502184524 | 44 | 246 | 6.0 | 14.0 | 0.00 | 0.01 | 0.00 | 60 | 1014.9 |
| 20260502184024 | 44 | 250 | 6.0 | 14.0 | 0.00 | 0.01 | 0.00 | 60 | 1014.9 |
| 20260502183503 | 43 | 260 | 6.0 | 14.0 | 0.00 | 0.01 | 0.00 | 60 | 1014.8 |
| 20260502182503 | 43 | 250 | 6.0 | 13.0 | 0.00 | 0.01 | 0.00 | 59 | 1014.8 |
| 20260502182003 | 43 | 246 | 6.0 | 13.0 | 0.00 | 0.01 | 0.00 | 60 | 1014.9 |
| 20260502181503 | 43 | 249 | 6.0 | 13.0 | 0.00 | 0.01 | 0.00 | 58 | 1014.8 |
| 20260502181003 | 43 | 254 | 6.0 | 14.0 | 0.00 | 0.01 | 0.00 | 59 | 1014.8 |
| 20260502180503 | 44 | 240 | 5.0 | 16.0 | 0.00 | 0.01 | 0.00 | 57 | 1014.8 |
| 20260502170503 | 43 | 245 | 5.0 | 11.0 | 0.00 | 0.01 | 0.00 | 54 | 1014.7 |
| 20260502164024 | 44 | 221 | 5.0 | 13.0 | 0.00 | 0.01 | 0.00 | 53 | 1014.6 |
| 20260502163503 | 44 | 231 | 6.0 | 14.0 | 0.00 | 0.01 | 0.00 | 53 | 1014.5 |
| 20260502163003 | 45 | 243 | 6.0 | 14.0 | 0.00 | 0.01 | 0.00 | 54 | 1014.6 |
| 20260502162503 | 44 | 235 | 5.0 | 13.0 | 0.00 | 0.02 | 0.00 | 51 | 1014.5 |
| 20260502162003 | 44 | 234 | 5.0 | 13.0 | 0.00 | 0.02 | 0.00 | 52 | 1014.6 |
| 20260502161503 | 44 | 240 | 6.0 | 13.0 | 0.00 | 0.02 | 0.00 | 52 | 1014.6 |
| 20260502161003 | 44 | 237 | 5.0 | 13.0 | 0.00 | 0.02 | 0.00 | 52 | 1014.7 |
| 20260502160503 | 45 | 248 | 5.0 | 13.0 | 0.00 | 0.02 | 0.00 | 52 | 1014.6 |
| 20260502151503 | 44 | 234 | 5.0 | 14.0 | 0.00 | 0.03 | 0.00 | 57 | 1014.6 |
| 20260502151003 | 43 | 242 | 5.0 | 14.0 | 0.00 | 0.03 | 0.00 | 55 | 1014.7 |
| 20260502150503 | 44 | 250 | 5.0 | 16.0 | 0.00 | 0.03 | 0.00 | 57 | 1014.7 |
| 20260502130503 | 40 | 259 | 4.0 | 12.0 | 0.00 | 0.03 | 0.00 | 64 | 1015.4 |
| 20260502123503 | 39 | 264 | 4.0 | 10.0 | 0.00 | 0.03 | 0.00 | 65 | 1015.3 |
| 20260502123003 | 39 | 243 | 3.0 | 9.0 | 0.00 | 0.03 | 0.00 | 68 | 1015.3 |
| 20260502122503 | 38 | 229 | 3.0 | 9.0 | 0.00 | 0.03 | 0.00 | 69 | 1015.3 |
| 20260502122024 | 38 | 227 | 3.0 | 9.0 | 0.00 | 0.03 | 0.00 | 71 | 1015.4 |
| 20260502121524 | 38 | 225 | 2.0 | 5.0 | 0.00 | 0.03 | 0.00 | 74 | 1015.4 |
| 20260502121003 | 38 | 221 | 3.0 | 5.0 | 0.00 | 0.03 | 0.00 | 74 | 1015.3 |
| 20260502120503 | 37 | 230 | 3.0 | 5.0 | 0.00 | 0.03 | 0.00 | 74 | 1015.2 |
| 20260502115503 | 37 | 214 | 2.0 | 7.0 | 0.00 | 0.03 | 0.00 | 76 | 1015.3 |
| 20260502115024 | 36 | 206 | 2.0 | 5.0 | 0.00 | 0.03 | 0.00 | 78 | 1015.4 |
| 20260502114503 | 36 | 191 | 2.0 | 5.0 | 0.00 | 0.03 | 0.00 | 78 | 1015.4 |
| 20260502114003 | 36 | 186 | 2.0 | 5.0 | 0.00 | 0.03 | 0.00 | 80 | 1015.4 |
| 20260502113524 | 36 | 183 | 1.0 | 5.0 | 0.00 | 0.03 | 0.00 | 81 | 1015.3 |
| 20260502113024 | 35 | 179 | 1.0 | 4.0 | 0.00 | 0.03 | 0.00 | 82 | 1015.3 |
| 20260502112503 | 35 | 177 | 2.0 | 5.0 | 0.00 | 0.03 | 0.00 | 83 | 1015.3 |
| 20260502112024 | 34 | 178 | 1.0 | 5.0 | 0.00 | 0.03 | 0.00 | 85 | 1015.5 |
| 20260502111524 | 34 | 180 | 2.0 | 4.0 | 0.00 | 0.03 | 0.00 | 86 | 1015.5 |
| 20260502111003 | 33 | 183 | 1.0 | 4.0 | 0.00 | 0.03 | 0.00 | 87 | 1015.4 |
| 20260502110503 | 33 | 191 | 1.0 | 2.0 | 0.00 | 0.03 | 0.00 | 87 | 1015.4 |
| 20260502110003 | 32 | 194 | 1.0 | 2.0 | 0.00 | 0.03 | 0.00 | 87 | 1015.4 |
| 20260502105524 | 32 | 197 | 1.0 | 3.0 | 0.00 | 0.03 | 0.00 | 88 | 1015.3 |
| 20260502105003 | 32 | 202 | 1.0 | 3.0 | 0.00 | 0.03 | 0.00 | 88 | 1015.3 |
| 20260502104503 | 31 | 221 | 1.0 | 3.0 | 0.00 | 0.03 | 0.00 | 88 | 1015.2 |
| 20260502104024 | 31 | 239 | 1.0 | 2.0 | 0.00 | 0.03 | 0.00 | 88 | 1015.2 |
| 20260502103503 | 30 | 252 | 1.0 | 2.0 | 0.00 | 0.03 | 0.00 | 88 | 1015.1 |
| 20260502103003 | 30 | 252 | 0.0 | 2.0 | 0.00 | 0.03 | 0.00 | 88 | 1015.1 |
| 20260502102503 | 30 | 252 | 0.0 | 2.0 | 0.00 | 0.03 | 0.00 | 88 | 1015.1 |
| 20260502102024 | 30 | 252 | 0.0 | 2.0 | 0.00 | 0.03 | 0.00 | 87 | 1015.1 |
| 20260502101503 | 30 | 252 | 0.0 | 2.0 | 0.00 | 0.03 | 0.00 | 87 | 1015.0 |
| 20260502101003 | 29 | 252 | 0.0 | 2.0 | 0.00 | 0.03 | 0.00 | 87 | 1014.9 |
| 20260502100503 | 29 | 0 | 0.0 | 0.0 | 0.00 | 0.03 | 0.00 | 87 | 1014.8 |
| 20260502091503 | 31 | 252 | 0.0 | 2.0 | 0.00 | 0.03 | 0.00 | 85 | 1014.4 |
| 20260502091024 | 31 | 252 | 0.0 | 2.0 | 0.00 | 0.03 | 0.00 | 85 | 1014.5 |
| 20260502090503 | 31 | 252 | 0.0 | 2.0 | 0.00 | 0.03 | 0.00 | 84 | 1014.5 |
| 20260502071503 | 34 | 252 | 0.0 | 2.0 | 0.00 | 0.03 | 0.00 | 79 | 1013.8 |
| 20260502071003 | 34 | 252 | 0.0 | 2.0 | 0.00 | 0.03 | 0.00 | 79 | 1013.8 |
| 20260502070503 | 34 | 252 | 0.0 | 2.0 | 0.00 | 0.03 | 0.00 | 78 | 1013.9 |
| 20260502070003 | 34 | 252 | 0.0 | 2.0 | 0.00 | 0.03 | 0.00 | 78 | 1014.0 |
| 20260502065503 | 35 | 252 | 0.0 | 2.0 | 0.00 | 0.03 | 0.00 | 78 | 1014.0 |
| 20260502065003 | 35 | 252 | 0.0 | 2.0 | 0.00 | 0.03 | 0.00 | 78 | 1014.1 |
| 20260502064503 | 35 | 252 | 1.0 | 3.0 | 0.00 | 0.03 | 0.00 | 77 | 1014.0 |
| 20260502064003 | 35 | 253 | 1.0 | 3.0 | 0.00 | 0.03 | 0.00 | 77 | 1014.0 |
| 20260502063524 | 35 | 253 | 0.0 | 2.0 | 0.00 | 0.03 | 0.00 | 77 | 1013.9 |
| 20260502063024 | 36 | 253 | 0.0 | 2.0 | 0.00 | 0.03 | 0.00 | 76 | 1014.0 |
| 20260502062503 | 36 | 253 | 0.0 | 3.0 | 0.00 | 0.03 | 0.00 | 76 | 1014.1 |
| 20260502062024 | 36 | 253 | 1.0 | 3.0 | 0.00 | 0.03 | 0.00 | 76 | 1014.2 |
| 20260502061524 | 36 | 254 | 1.0 | 3.0 | 0.00 | 0.03 | 0.00 | 75 | 1014.3 |
| 20260502061003 | 36 | 254 | 1.0 | 3.0 | 0.00 | 0.03 | 0.00 | 75 | 1014.2 |
| 20260502060524 | 36 | 255 | 1.0 | 3.0 | 0.00 | 0.03 | 0.00 | 75 | 1014.2 |
| 20260502060003 | 37 | 257 | 1.0 | 4.0 | 0.00 | 0.03 | 0.00 | 74 | 1014.2 |
| 20260502055503 | 37 | 258 | 2.0 | 4.0 | 0.00 | 0.03 | 0.00 | 74 | 1014.2 |
| 20260502055024 | 37 | 261 | 1.0 | 4.0 | 0.00 | 0.03 | 0.00 | 73 | 1014.3 |
| 20260502054503 | 37 | 261 | 1.0 | 4.0 | 0.00 | 0.03 | 0.00 | 73 | 1014.3 |
| 20260502054003 | 37 | 260 | 1.0 | 3.0 | 0.00 | 0.03 | 0.00 | 72 | 1014.3 |
| 20260502053503 | 38 | 259 | 1.0 | 4.0 | 0.00 | 0.03 | 0.00 | 72 | 1014.2 |
| 20260502053003 | 38 | 257 | 2.0 | 7.0 | 0.00 | 0.03 | 0.00 | 71 | 1014.2 |
| 20260502052503 | 38 | 253 | 3.0 | 7.0 | 0.00 | 0.03 | 0.00 | 71 | 1014.1 |
| 20260502052003 | 38 | 255 | 2.0 | 7.0 | 0.00 | 0.03 | 0.00 | 70 | 1014.2 |
| 20260502051503 | 38 | 262 | 3.0 | 7.0 | 0.00 | 0.03 | 0.00 | 70 | 1014.1 |
| 20260502051003 | 39 | 267 | 3.0 | 9.0 | 0.00 | 0.03 | 0.00 | 69 | 1014.1 |
| 20260502050503 | 39 | 274 | 4.0 | 9.0 | 0.00 | 0.03 | 0.00 | 69 | 1014.2 |
| 20260502050003 | 39 | 276 | 4.0 | 9.0 | 0.00 | 0.03 | 0.00 | 69 | 1014.1 |
| 20260502045503 | 39 | 273 | 4.0 | 10.0 | 0.00 | 0.03 | 0.00 | 69 | 1014.1 |
| 20260502045003 | 40 | 267 | 3.0 | 10.0 | 0.00 | 0.03 | 0.00 | 70 | 1013.9 |
| 20260502044504 | 40 | 260 | 2.0 | 4.0 | 0.00 | 0.03 | 0.00 | 72 | 1013.8 |
| 20260502044003 | 40 | 255 | 2.0 | 7.0 | 0.00 | 0.03 | 0.00 | 72 | 1013.7 |
| 20260502043524 | 40 | 257 | 2.0 | 7.0 | 0.00 | 0.03 | 0.00 | 73 | 1013.7 |
| 20260502043024 | 40 | 258 | 2.0 | 7.0 | 0.00 | 0.03 | 0.00 | 76 | 1013.5 |
| 20260502042503 | 40 | 247 | 2.0 | 7.0 | 0.00 | 0.03 | 0.00 | 78 | 1013.5 |
| 20260502042024 | 40 | 233 | 2.0 | 5.0 | 0.00 | 0.03 | 0.00 | 79 | 1013.4 |
| 20260502041503 | 41 | 248 | 2.0 | 5.0 | 0.00 | 0.03 | 0.00 | 80 | 1013.4 |
| 20260502041003 | 41 | 245 | 1.0 | 5.0 | 0.00 | 0.03 | 0.00 | 80 | 1013.4 |
| 20260502040524 | 41 | 209 | 1.0 | 4.0 | 0.00 | 0.03 | 0.00 | 81 | 1013.4 |
| 20260502040004 | 41 | 196 | 1.0 | 3.0 | 0.00 | 0.03 | 0.00 | 81 | 1013.4 |
| 20260502035503 | 42 | 204 | 2.0 | 4.0 | 0.00 | 0.03 | 0.03 | 81 | 1013.5 |
| 20260502035003 | 42 | 217 | 2.0 | 5.0 | 0.00 | 0.03 | 0.03 | 81 | 1013.4 |
| 20260502034524 | 42 | 222 | 2.0 | 5.0 | 0.00 | 0.03 | 0.03 | 81 | 1013.5 |
| 20260502034003 | 42 | 217 | 2.0 | 5.0 | 0.00 | 0.03 | 0.03 | 80 | 1013.5 |
| 20260502033503 | 42 | 242 | 2.0 | 8.0 | 0.00 | 0.03 | 0.03 | 80 | 1013.5 |
| 20260502033024 | 42 | 257 | 2.0 | 8.0 | 0.00 | 0.03 | 0.03 | 80 | 1013.5 |
| 20260502032503 | 41 | 252 | 2.0 | 6.0 | 0.00 | 0.03 | 0.03 | 80 | 1013.5 |
| 20260502032003 | 41 | 228 | 2.0 | 7.0 | 0.00 | 0.03 | 0.03 | 80 | 1013.4 |
| 20260502031503 | 41 | 211 | 3.0 | 7.0 | 0.00 | 0.03 | 0.03 | 79 | 1013.4 |
| 20260502031003 | 41 | 211 | 2.0 | 7.0 | 0.00 | 0.03 | 0.03 | 79 | 1013.5 |
| 20260502030503 | 41 | 212 | 2.0 | 7.0 | 0.00 | 0.03 | 0.03 | 78 | 1013.5 |
| 20260502030003 | 41 | 223 | 3.0 | 7.0 | 0.00 | 0.03 | 0.03 | 78 | 1013.5 |
| 20260502025503 | 41 | 216 | 4.0 | 11.0 | 0.00 | 0.03 | 0.03 | 78 | 1013.5 |
| 20260502025003 | 41 | 219 | 4.0 | 11.0 | 0.00 | 0.03 | 0.03 | 78 | 1013.5 |
| 20260502024503 | 41 | 226 | 3.0 | 9.0 | 0.00 | 0.03 | 0.03 | 78 | 1013.5 |
| 20260502024024 | 41 | 228 | 4.0 | 9.0 | 0.00 | 0.03 | 0.03 | 78 | 1013.7 |
| 20260502023524 | 41 | 235 | 4.0 | 10.0 | 0.00 | 0.03 | 0.03 | 78 | 1013.6 |
| 20260502023003 | 41 | 221 | 4.0 | 10.0 | 0.00 | 0.03 | 0.03 | 78 | 1013.6 |
| 20260502022503 | 41 | 219 | 3.0 | 9.0 | 0.00 | 0.03 | 0.03 | 79 | 1013.6 |
| 20260502022003 | 41 | 219 | 3.0 | 9.0 | 0.00 | 0.03 | 0.03 | 80 | 1013.5 |
| 20260502021503 | 41 | 210 | 3.0 | 8.0 | 0.00 | 0.03 | 0.03 | 80 | 1013.5 |
| 20260502021003 | 41 | 214 | 3.0 | 10.0 | 0.00 | 0.03 | 0.03 | 81 | 1013.4 |
| 20260502020503 | 41 | 211 | 2.0 | 10.0 | 0.00 | 0.03 | 0.03 | 81 | 1013.4 |
| 20260502020003 | 41 | 213 | 2.0 | 7.0 | 0.00 | 0.03 | 0.03 | 81 | 1013.4 |
| 20260502015503 | 41 | 220 | 2.0 | 7.0 | 0.00 | 0.03 | 0.03 | 80 | 1013.3 |
| 20260502015003 | 41 | 219 | 3.0 | 9.0 | 0.00 | 0.03 | 0.03 | 80 | 1013.4 |
| 20260502014503 | 41 | 213 | 3.0 | 9.0 | 0.00 | 0.03 | 0.03 | 81 | 1013.4 |
| 20260502014003 | 41 | 212 | 2.0 | 5.0 | 0.00 | 0.03 | 0.03 | 81 | 1013.3 |
| 20260502013503 | 41 | 217 | 3.0 | 7.0 | 0.00 | 0.03 | 0.03 | 81 | 1013.4 |
| 20260502013003 | 41 | 228 | 3.0 | 8.0 | 0.00 | 0.03 | 0.03 | 81 | 1013.4 |
| 20260502012503 | 41 | 240 | 4.0 | 10.0 | 0.00 | 0.03 | 0.03 | 81 | 1013.1 |
| 20260502012003 | 41 | 229 | 4.0 | 10.0 | 0.00 | 0.03 | 0.03 | 81 | 1013.0 |
| 20260502011503 | 42 | 214 | 3.0 | 8.0 | 0.00 | 0.03 | 0.03 | 82 | 1013.0 |
| 20260502011003 | 42 | 229 | 3.0 | 9.0 | 0.00 | 0.03 | 0.03 | 82 | 1013.0 |
| 20260502010503 | 42 | 232 | 4.0 | 10.0 | 0.00 | 0.03 | 0.03 | 82 | 1013.0 |
| 20260502010003 | 42 | 232 | 4.0 | 10.0 | 0.00 | 0.03 | 0.03 | 82 | 1013.0 |
| 20260502005503 | 42 | 237 | 3.0 | 10.0 | 0.00 | 0.03 | 0.03 | 81 | 1012.8 |
| 20260502005024 | 42 | 235 | 3.0 | 10.0 | 0.00 | 0.03 | 0.03 | 81 | 1012.8 |
| 20260502004524 | 42 | 242 | 4.0 | 10.0 | 0.00 | 0.03 | 0.03 | 81 | 1012.7 |
| 20260502004003 | 42 | 236 | 4.0 | 10.0 | 0.00 | 0.03 | 0.03 | 80 | 1012.6 |
| 20260502003503 | 42 | 239 | 4.0 | 10.0 | 0.00 | 0.03 | 0.03 | 80 | 1012.5 |
| 20260502003003 | 43 | 250 | 3.0 | 10.0 | 0.00 | 0.03 | 0.03 | 81 | 1012.4 |
| 20260502002503 | 43 | 236 | 3.0 | 9.0 | 0.00 | 0.03 | 0.03 | 80 | 1012.3 |